TimePDT,TemperatureF,Dew PointF,Humidity,Sea Level PressureIn,VisibilityMPH,Wind Direction,Wind SpeedMPH,Gust SpeedMPH,PrecipitationIn,Events,Conditions,WindDirDegrees,DateUTC
12:53 AM,57.2,46.4,67,30.07,10.0,Variable,6.9,-,N/A,,Scattered Clouds,0,2014-05-16 07:53:00
1:53 AM,57.0,46.9,69,30.08,10.0,Variable,6.9,-,N/A,,Clear,0,2014-05-16 08:53:00
2:53 AM,55.9,46.9,72,30.08,10.0,SSE,6.9,-,N/A,,Clear,150,2014-05-16 09:53:00
3:53 AM,55.9,46.9,72,30.08,10.0,SSE,8.1,-,N/A,,Scattered Clouds,150,2014-05-16 10:53:00
4:53 AM,55.9,48.0,75,30.08,10.0,SSE,9.2,-,N/A,,Clear,160,2014-05-16 11:53:00
5:53 AM,55.9,48.0,75,30.09,10.0,SE,10.4,-,N/A,,Partly Cloudy,140,2014-05-16 12:53:00
6:53 AM,57.0,48.0,72,30.10,10.0,SE,10.4,-,N/A,,Mostly Cloudy,140,2014-05-16 13:53:00
7:53 AM,59.0,48.9,69,30.11,10.0,SE,10.4,-,N/A,,Scattered Clouds,140,2014-05-16 14:53:00
8:53 AM,61.0,48.0,62,30.12,10.0,SSW,8.1,-,N/A,,Overcast,210,2014-05-16 15:53:00
9:53 AM,63.0,48.9,60,30.12,10.0,South,11.5,-,N/A,,Overcast,190,2014-05-16 16:53:00
10:53 AM,63.0,48.9,60,30.12,10.0,South,5.8,-,N/A,,Mostly Cloudy,170,2014-05-16 17:53:00
11:53 AM,64.0,50.0,60,30.11,10.0,Variable,6.9,-,N/A,,Mostly Cloudy,0,2014-05-16 18:53:00
12:53 PM,66.2,48.2,52,30.11,10.0,SSW,8.1,16.1,N/A,,Mostly Cloudy,200,2014-05-16 19:53:00
1:53 PM,66.0,48.0,52,30.11,10.0,SSW,8.1,-,N/A,,Mostly Cloudy,210,2014-05-16 20:53:00
2:53 PM,66.9,48.0,51,30.10,10.0,SSW,9.2,-,N/A,,Partly Cloudy,210,2014-05-16 21:53:00
3:53 PM,68.0,48.9,50,30.08,10.0,SSE,9.2,-,N/A,,Mostly Cloudy,160,2014-05-16 22:53:00
4:53 PM,68.0,48.0,49,30.07,10.0,Variable,6.9,-,N/A,,Scattered Clouds,0,2014-05-16 23:53:00
5:53 PM,69.1,48.0,47,30.06,10.0,SW,5.8,-,N/A,,Scattered Clouds,220,2014-05-17 00:53:00
6:53 PM,66.0,46.0,48,30.06,10.0,SW,8.1,16.1,N/A,,Mostly Cloudy,230,2014-05-17 01:53:00
7:53 PM,64.0,46.0,52,30.07,10.0,Variable,5.8,-,N/A,,Scattered Clouds,0,2014-05-17 02:53:00
8:53 PM,62.1,46.9,58,30.08,10.0,Variable,5.8,-,N/A,,Scattered Clouds,0,2014-05-17 03:53:00
9:53 PM,60.1,46.0,60,30.09,10.0,SSW,4.6,-,N/A,,Scattered Clouds,210,2014-05-17 04:53:00
10:53 PM,57.0,46.9,69,30.09,10.0,South,4.6,-,N/A,,Clear,170,2014-05-17 05:53:00
11:53 PM,57.0,46.0,67,30.09,10.0,South,4.6,-,N/A,,Scattered Clouds,190,2014-05-17 06:53:00